Location: Quedlinburg
(51.7921°N, 11.1414°E)
Time: 04:48:14
(UTC+02:00)

STRAND 1 - Pass Details

Date: 15 March 2026
Orbit: 761 x 775 km, 98.4° (Epoch: 16 April)

Event Time Altitude Azimuth Distance (km) Brightness Sun altitude
Rises 19:43:24 0° 7° (N) 3,245 ? -13.6°
Reaches altitude 10° 19:46:03 10° 355° (N) 2,312 ? -14.0°
Maximum altitude 19:50:09 25° 301° (WNW) 1,502 ? -14.6°
Drops below altitude 10° 19:54:13 10° 247° (WSW) 2,296 ? -15.2°
Sets 19:56:50 0° 235° (SW) 3,217 ? -15.6°
